Location: ????????
(55.6189°N, 38.3031°E)
Time: 00:48:25
(UTC+00:00)

SL-16 R/B - Pass Details

Date: 24 February 2020
Orbit: 843 x 847 km, 71.0° (Epoch: 01 April)

Event Time Altitude Azimuth Distance (km) Brightness Sun altitude
Exits shadow 03:07:34 16° 285° (WNW) 2,068 3.6 -12.6°
Maximum altitude 03:10:52 27° 330° (NNW) 1,597 3.4 -12.1°
Drops below altitude 10° 03:15:37 10° 27° (NNE) 2,478 5.0 -11.4°
Sets 03:18:29 0° 40° (NE) 3,415 6.0 -11.0°
